Weather History for Ann Arbor, MI

Change the Weather History Date:

Saturday, November 16, 2013

  Actual Average Record
Temperature  
Mean Temperature 42 °F -  
Max Temperature 57 °F 47 °F 64 °F (2001)
Min Temperature 28 °F 30 °F 19 °F (2012)
Degree Days  
Heating Degree Days 22    
Moisture  
Dew Point 40 °F    
Average Humidity 83    
Maximum Humidity 93    
Minimum Humidity 67    
Precipitation  
Precipitation 0.00 in - - ()
Sea Level Pressure  
Sea Level Pressure 30.01 in    
Wind  
Wind Speed 5 mph (South)    
Max Wind Speed 14 mph    
Max Gust Speed 23 mph    
Visibility 9 miles    
Events      
Averages and records for this station are not official NWS values.
T = Trace of Precipitation, MM = Missing Value Source: NWS Daily Summary

Daily Weather History Graph

Daily Weather History Graph

Search for Another Location

Airport:

Trip Planner

Search our weather history database for the weather conditions in past years. The results will help you decide how hot, cold, wet, or windy it might be!

Date:

Astronomy

Nov. 16, 2013 Rise Set
Actual Time 7:26 AM EST 5:12 PM EST
Civil Twilight 6:56 AM EST 5:42 PM EST
Nautical Twilight 6:22 AM EST 6:16 PM EST
Astronomical Twilight 5:49 AM EST 6:49 PM EST
Moon 4:47 PM EST (11/16) 6:21 AM EST (11/16)
Length of Visible Light 10h 45m
Length of Day
9h 45m
Waxing Gibbous, 99% of the Moon is Illuminated
Nov 16
Waxing Gibbous
Nov 17
Full
Nov 25
Last Quarter
Dec 2
New
Dec 9
First Quarter

Hourly Weather History & Observations

Time (EST) Temp. Windchill Dew Point Humidity Pressure Visibility Wind Dir Wind Speed Gust Speed Precip Events Conditions
12:53 AM 37.9 °F 33.5 °F 30.0 °F 73% 30.08 in 10.0 mi South 5.8 mph - N/A   Scattered Clouds
1:53 AM 36.0 °F 33.3 °F 28.9 °F 76% 30.07 in 10.0 mi South 3.5 mph - N/A   Clear
2:53 AM 33.1 °F 30.0 °F 28.0 °F 82% 30.09 in 10.0 mi South 3.5 mph - N/A   Clear
3:53 AM 35.1 °F 31.0 °F 30.0 °F 82% 30.07 in 10.0 mi South 4.6 mph - N/A   Clear
4:53 AM 30.0 °F - 27.0 °F 88% 30.10 in 9.0 mi Calm Calm - N/A   Clear
5:53 AM 30.0 °F - 27.0 °F 88% 30.10 in 8.0 mi Calm Calm - N/A   Clear
6:50 AM 28.4 °F - 26.6 °F 93% 30.08 in 7.0 mi Calm Calm - N/A   Mostly Cloudy
6:53 AM 30.0 °F - 28.0 °F 92% 30.11 in 8.0 mi Calm Calm - N/A   Mostly Cloudy
7:53 AM 36.0 °F - 34.0 °F 93% 30.11 in 6.0 mi Calm Calm - N/A   Overcast
8:23 AM 39.2 °F - 35.6 °F 87% 30.09 in 5.0 mi Calm Calm - N/A   Overcast
8:45 AM 39.2 °F 37.0 °F 35.6 °F 87% 30.08 in 5.0 mi ESE 3.5 mph - N/A   Overcast
8:53 AM 39.9 °F 37.8 °F 36.0 °F 86% 30.10 in 6.0 mi SE 3.5 mph - N/A   Overcast
9:09 AM 41.0 °F - 37.4 °F 87% 30.09 in 7.0 mi Calm Calm - N/A   Overcast
9:48 AM 42.8 °F 39.3 °F 39.2 °F 87% 30.07 in 8.0 mi SE 5.8 mph - N/A   Overcast
9:53 AM 43.0 °F 39.5 °F 39.0 °F 86% 30.08 in 8.0 mi SSE 5.8 mph - N/A   Overcast
10:53 AM 46.0 °F 42.5 °F 41.0 °F 83% 30.08 in 10.0 mi South 6.9 mph - N/A   Overcast
11:33 AM 48.2 °F - 42.8 °F 82% 30.05 in 8.0 mi South 6.9 mph - N/A   Overcast
11:53 AM 48.0 °F - 43.0 °F 83% 30.05 in 9.0 mi South 9.2 mph - N/A   Overcast
12:07 PM 48.2 °F - 44.6 °F 87% 30.01 in 9.0 mi SSE 9.2 mph - N/A   Overcast
12:53 PM 51.1 °F - 45.0 °F 80% 30.00 in 10.0 mi South 10.4 mph - N/A   Overcast
1:53 PM 54.0 °F - 46.0 °F 75% 29.97 in 10.0 mi South 8.1 mph 18.4 mph N/A   Clear
2:53 PM 55.9 °F - 46.9 °F 72% 29.95 in 10.0 mi South 9.2 mph 17.3 mph N/A   Overcast
3:21 PM 57.2 °F - 46.4 °F 67% 29.93 in 10.0 mi South 11.5 mph - N/A   Overcast
3:53 PM 57.0 °F - 48.0 °F 72% 29.94 in 10.0 mi South 12.7 mph - N/A   Partly Cloudy
4:53 PM 55.9 °F - 46.9 °F 72% 29.93 in 10.0 mi South 11.5 mph - N/A   Partly Cloudy
5:53 PM 54.0 °F - 46.9 °F 77% 29.93 in 10.0 mi South 12.7 mph 18.4 mph N/A   Mostly Cloudy
6:22 PM 53.6 °F - 46.4 °F 77% 29.91 in 10.0 mi South 10.4 mph - N/A   Mostly Cloudy
6:53 PM 51.1 °F - 48.0 °F 89% 29.93 in 10.0 mi South 11.5 mph - N/A   Overcast
7:53 PM 54.0 °F - 48.9 °F 83% 29.89 in 10.0 mi South 10.4 mph 18.4 mph N/A   Overcast
8:53 PM 55.0 °F - 50.0 °F 83% 29.88 in 10.0 mi South 11.5 mph - N/A   Overcast
9:53 PM 55.9 °F - 50.0 °F 80% 29.83 in 10.0 mi South 10.4 mph 23.0 mph N/A   Overcast
10:53 PM 55.9 °F - 52.0 °F 87% 29.82 in 10.0 mi South 12.7 mph - 0.00 in   Overcast
11:53 PM 55.9 °F - 52.0 °F 87% 29.81 in 10.0 mi South 13.8 mph 23.0 mph 0.00 in   Overcast